Weather History for KEYW - March, 2014

Change the Weather History Date:

Sunday, March 16, 2014

  Actual Average Record
Temperature  
Mean Temperature 77 °F 73 °F  
Max Temperature 80 °F 78 °F 86 °F (1964)
Min Temperature 73 °F 68 °F 53 °F (1988)
Degree Days  
Heating Degree Days 0 0  
Month to date heating degree days 0 0  
Since 1 July heating degree days 22 66  
Cooling Degree Days 12 8  
Month to date cooling degree days 133 127  
Year to date cooling degree days 559 475  
Growing Degree Days 26 (Base 50)    
Moisture  
Dew Point 67 °F    
Average Humidity 72    
Maximum Humidity 79    
Minimum Humidity 64    
Precipitation  
Precipitation T in 0.07 in 2.04 in (1968)
Month to date precipitation 2.04 1.16  
Year to date precipitation 9.64 4.69  
Snow  
Snow 0.00 in - - ()
Month to date snowfall 0.0  
Since 1 July snowfall 0.0  
Snow Depth 0.00 in    
Sea Level Pressure  
Sea Level Pressure 29.92 in    
Wind  
Wind Speed 15 mph (SE)    
Max Wind Speed 21 mph    
Max Gust Speed 30 mph    
Visibility 10 miles    
Events Rain    
T = Trace of Precipitation, MM = Missing Value Source: NWS Daily Summary

Daily Weather History Graph

Daily Weather History Graph

Search for Another Location

Airport or City:

Trip Planner

Search our weather history database for the weather conditions in past years. The results will help you decide how hot, cold, wet, or windy it might be!

Date:

Astronomy

Mar. 16, 2014 Rise Set
Actual Time 7:35 AM EDT 7:36 PM EDT
Civil Twilight 7:12 AM EDT 7:59 PM EDT
Nautical Twilight 6:45 AM EDT 8:25 PM EDT
Astronomical Twilight 6:19 AM EDT 8:52 PM EDT
Moon 7:47 PM EDT (3/16) 7:19 AM EDT (3/16)
Length of Visible Light 12h 46m
Length of Day
12h 01m
Full, 100% of the Moon is Illuminated
Mar 16
Full
Mar 16
Full
Mar 23
Last Quarter
Mar 30
New
Apr 7
First Quarter

Hourly Weather History & Observations

Time (EDT) Temp. Heat Index Dew Point Humidity Pressure Visibility Wind Dir Wind Speed Gust Speed Precip Events Conditions
12:53 AM 73.9 °F - 61.0 °F 64% 30.03 in 10.0 mi ESE 16.1 mph - N/A   Clear
1:53 AM 73.9 °F - 63.0 °F 68% 30.01 in 10.0 mi SE 15.0 mph - N/A   Clear
2:53 AM 73.9 °F - 63.0 °F 68% 29.99 in 10.0 mi ESE 13.8 mph - N/A   Partly Cloudy
3:53 AM 73.9 °F - 64.0 °F 71% 29.96 in 10.0 mi ESE 13.8 mph - N/A   Clear
4:53 AM 73.9 °F - 64.9 °F 73% 29.96 in 10.0 mi ESE 15.0 mph - N/A   Mostly Cloudy
5:53 AM 73.9 °F - 64.9 °F 73% 29.96 in 10.0 mi ESE 13.8 mph - N/A   Partly Cloudy
6:53 AM 73.9 °F - 64.9 °F 73% 29.95 in 10.0 mi ESE 17.3 mph - N/A   Scattered Clouds
7:53 AM 73.9 °F - 66.0 °F 76% 29.96 in 10.0 mi ESE 17.3 mph - N/A   Partly Cloudy
8:53 AM 75.0 °F - 68.0 °F 79% 29.97 in 10.0 mi ESE 16.1 mph - N/A   Partly Cloudy
9:53 AM 77.0 °F - 68.0 °F 74% 29.96 in 10.0 mi ESE 17.3 mph - N/A   Mostly Cloudy
10:19 AM 75.9 °F - 66.9 °F 74% 29.96 in 10.0 mi ESE 18.4 mph 26.5 mph 0.00 in Rain Light Rain
10:53 AM 77.0 °F - 69.1 °F 76% 29.98 in 10.0 mi SSE 12.7 mph - 0.00 in   Overcast
11:15 AM 78.1 °F - 68.0 °F 71% 29.97 in 10.0 mi SSE 16.1 mph - N/A   Scattered Clouds
11:53 AM 79.0 °F - 69.1 °F 72% 29.97 in 10.0 mi SSE 16.1 mph - N/A   Clear
12:53 PM 79.0 °F - 68.0 °F 69% 29.95 in 10.0 mi SSE 16.1 mph - N/A   Clear
1:53 PM 80.1 °F 82.9 °F 69.1 °F 69% 29.91 in 10.0 mi SSE 17.3 mph - N/A   Scattered Clouds
2:53 PM 79.0 °F - 68.0 °F 69% 29.89 in 10.0 mi SSE 17.3 mph 27.6 mph N/A   Clear
3:53 PM 80.1 °F 82.9 °F 69.1 °F 69% 29.86 in 10.0 mi SSE 16.1 mph - N/A   Clear
4:53 PM 79.0 °F - 68.0 °F 69% 29.82 in 10.0 mi SE 12.7 mph - N/A   Clear
5:53 PM 79.0 °F - 66.9 °F 66% 29.81 in 10.0 mi ESE 13.8 mph 23.0 mph N/A   Clear
6:53 PM 77.0 °F - 68.0 °F 74% 29.81 in 10.0 mi SE 15.0 mph - N/A   Clear
7:53 PM 77.0 °F - 68.0 °F 74% 29.82 in 10.0 mi SE 12.7 mph - N/A   Clear
8:53 PM 77.0 °F - 69.1 °F 76% 29.83 in 10.0 mi SE 11.5 mph - N/A   Clear
9:53 PM 77.0 °F - 69.1 °F 76% 29.85 in 10.0 mi SE 13.8 mph - N/A   Clear
10:53 PM 77.0 °F - 70.0 °F 79% 29.85 in 10.0 mi SE 12.7 mph - N/A   Clear
11:53 PM 77.0 °F - 70.0 °F 79% 29.86 in 10.0 mi SE 15.0 mph - N/A   Clear